Regional Weather Roundup
Issued by NWS

Home | Current Version | Previous Version | Graphics & Text | Print | Product List | Glossary On
Versions: 1 2 3 4 5 6 7 8 9 10 11 12 13 14 15 16 17 18 19 20 21 22 23 24 25 26 27 28 29 30 31 32 33 34 35 36 37 38 39 40 41 42 43 44 45 46 47 48 49 50
305
ASUS43 KFSD 240810
RWRSD

WEATHER ROUNDUP FOR SOUTH DAKOTA
NATIONAL WEATHER SERVICE SIOUX FALLS SD
300 AM CDT SAT JUN 24 2017

NOTE: "FAIR" INDICATES FEW OR NO CLOUDS BELOW 12,000 FEET WITH NO
SIGNIFICANT WEATHER AND/OR OBSTRUCTIONS TO VISIBILITY.


SDZ001>005-009-010-012>017-240900-
NORTHWEST AND NORTH CENTRAL SOUTH DAKOTA

CITY           SKY/WX    TMP DP  RH WIND       PRES   REMARKS
BUFFALO          N/A     47  30  51 NW9       30.16R
FAITH            N/A     48  33  56 W9        30.18S
MOBRIDGE       CLEAR     43  38  82 CALM      30.09F
$$

SDZ012>016-024>037-041>051-057-063-072>074-240900-
SOUTHWEST AND SOUTH CENTRAL SOUTH DAKOTA

CITY           SKY/WX    TMP DP  RH WIND       PRES   REMARKS
RAPID CTY ARPT CLEAR     48  29  47 NW9       30.25S
PIERRE         CLEAR     49  40  71 SW9       30.14S
CUSTER         CLOUDY    44  23  43 NW6       30.31F
ELLSWORTH AFB  CLEAR     44  29  54 W7        30.24S
PHILIP         CLEAR     46  32  58 W13       30.20S
PINE RIDGE     CLEAR     39  34  82 CALM      30.26F
SPEARFISH      FAIR      46  30  53 CALM      30.28S
WINNER         FAIR      47  34  60 SW6       30.18F
$$

SDZ004>011-016>023-039-040-240900-
NORTHEAST SOUTH DAKOTA

CITY           SKY/WX    TMP DP  RH WIND       PRES   REMARKS
ABERDEEN       CLEAR     41  39  93 SW7       30.09S
WATERTOWN      CLEAR     50  41  71 W6        30.07F
BROOKINGS      CLEAR     46  41  82 W6        30.10S
SISSETON         N/A     50  40  68 W9        30.03F
$$

SDZ017-020-022-023-036>040-048>070-240900-
SOUTHEAST SOUTH DAKOTA

CITY           SKY/WX    TMP DP  RH WIND       PRES   REMARKS
SIOUX FALLS    CLEAR     51  43  74 W7        30.11S
HURON          CLEAR     46  42  86 SW5       30.12S
CHAMBERLAIN    CLEAR     47  41  79 CALM      30.16F
MITCHELL       CLEAR     50  40  68 W6        30.14S
YANKTON        CLEAR     48  40  73 NW6       30.15R
$$

ABBREVIATIONS USED IN REMARKS
   TC - TEMPERATURE IN CELSIUS
  WCI - WIND CHILL INDEX
   HX - HEAT INDEX
  VSB - VISIBILITY





USA.gov is the U.S. government's official web portal to all federal, state and local government web resources and services.